owner,sensor,date,latitude,longitude,air_pressure(mBar),qcFlag 
LUMCON,ioos:station:LUMCON:103:1,2007-08-01T00:00:00Z,30.1889,-90.1683,1011.9,11111222 
LUMCON,ioos:station:LUMCON:103:1,2007-08-01T01:00:00Z,30.1889,-90.1683,1012.2,11111222 
LUMCON,ioos:station:LUMCON:103:1,2007-08-01T02:00:00Z,30.1889,-90.1683,1011.7,11111222 
LUMCON,ioos:station:LUMCON:103:1,2007-08-01T03:00:00Z,30.1889,-90.1683,1012.1,11111222 
LUMCON,ioos:station:LUMCON:103:1,2007-08-01T04:00:00Z,30.1889,-90.1683,1012.3,11111222 
LUMCON,ioos:station:LUMCON:103:1,2007-08-01T06:00:00Z,30.1889,-90.1683,1012.3,11111222 
LUMCON,ioos:station:LUMCON:103:1,2007-08-01T08:00:00Z,30.1889,-90.1683,1011.5,11111222 
LUMCON,ioos:station:LUMCON:103:1,2007-08-01T10:00:00Z,30.1889,-90.1683,1011.8,11111222 
LUMCON,ioos:station:LUMCON:103:1,2007-08-01T14:00:00Z,30.1889,-90.1683,1011.9,11111222 
LUMCON,ioos:station:LUMCON:103:1,2007-08-01T15:00:00Z,30.1889,-90.1683,1011.9,11111222 
LUMCON,ioos:station:LUMCON:103:1,2007-08-01T16:00:00Z,30.1889,-90.1683,1012.0,11111222 
LUMCON,ioos:station:LUMCON:103:1,2007-08-01T21:00:00Z,30.1889,-90.1683,1010.1,11111222 
LUMCON,ioos:station:LUMCON:103:1,2007-08-01T22:00:00Z,30.1889,-90.1683,1009.7,11111222 
LUMCON,ioos:station:LUMCON:103:1,2007-08-01T23:00:00Z,30.1889,-90.1683,1010.4,11111222 
LUMCON,ioos:station:LUMCON:103:1,2007-08-02T02:00:00Z,30.1889,-90.1683,1010.7,11111222 
LUMCON,ioos:station:LUMCON:103:1,2007-08-02T03:00:00Z,30.1889,-90.1683,1010.6,11111222 
LUMCON,ioos:station:LUMCON:103:1,2007-08-02T04:00:00Z,30.1889,-90.1683,1010.7,11111222 
LUMCON,ioos:station:LUMCON:103:1,2007-08-02T05:00:00Z,30.1889,-90.1683,1011.0,11111222 
LUMCON,ioos:station:LUMCON:103:1,2007-08-02T06:00:00Z,30.1889,-90.1683,1011.0,11111222 
LUMCON,ioos:station:LUMCON:103:1,2007-08-02T08:00:00Z,30.1889,-90.1683,1011.1,11111222 
LUMCON,ioos:station:LUMCON:103:1,2007-08-02T12:00:00Z,30.1889,-90.1683,1011.8,11111222 
LUMCON,ioos:station:LUMCON:103:1,2007-08-02T13:00:00Z,30.1889,-90.1683,1012.3,11111222 
LUMCON,ioos:station:LUMCON:103:1,2007-08-02T14:00:00Z,30.1889,-90.1683,1012.7,11111222 
LUMCON,ioos:station:LUMCON:103:1,2007-08-02T15:00:00Z,30.1889,-90.1683,1013.2,11111222 
LUMCON,ioos:station:LUMCON:103:1,2007-08-02T16:00:00Z,30.1889,-90.1683,1013.0,11111222 
LUMCON,ioos:station:LUMCON:103:1,2007-08-02T17:00:00Z,30.1889,-90.1683,1013.1,11111222 
LUMCON,ioos:station:LUMCON:103:1,2007-08-02T18:00:00Z,30.1889,-90.1683,1013.1,11111222 
LUMCON,ioos:station:LUMCON:103:1,2007-08-02T19:00:00Z,30.1889,-90.1683,1013.0,11111222 
LUMCON,ioos:station:LUMCON:103:1,2007-08-02T20:00:00Z,30.1889,-90.1683,1012.8,11111222 
LUMCON,ioos:station:LUMCON:103:1,2007-08-02T21:00:00Z,30.1889,-90.1683,1012.6,11111222 
LUMCON,ioos:station:LUMCON:103:1,2007-08-02T22:00:00Z,30.1889,-90.1683,1012.5,11111222 
LUMCON,ioos:station:LUMCON:103:1,2007-08-02T23:00:00Z,30.1889,-90.1683,1012.4,11111222 
LUMCON,ioos:station:LUMCON:103:1,2007-08-03T00:00:00Z,30.1889,-90.1683,1012.4,11111222 
LUMCON,ioos:station:LUMCON:103:1,2007-08-03T01:00:00Z,30.1889,-90.1683,1012.8,11111222 
LUMCON,ioos:station:LUMCON:103:1,2007-08-03T02:00:00Z,30.1889,-90.1683,1013.6,11111222 
LUMCON,ioos:station:LUMCON:103:1,2007-08-03T03:00:00Z,30.1889,-90.1683,1014.0,11111222 
LUMCON,ioos:station:LUMCON:103:1,2007-08-03T04:00:00Z,30.1889,-90.1683,1014.3,11111222 
LUMCON,ioos:station:LUMCON:103:1,2007-08-03T05:00:00Z,30.1889,-90.1683,1014.2,11111222 
LUMCON,ioos:station:LUMCON:103:1,2007-08-03T06:00:00Z,30.1889,-90.1683,1013.9,11111222 
LUMCON,ioos:station:LUMCON:103:1,2007-08-03T07:00:00Z,30.1889,-90.1683,1013.8,11111222 
LUMCON,ioos:station:LUMCON:103:1,2007-08-03T08:00:00Z,30.1889,-90.1683,1013.9,11111222 
LUMCON,ioos:station:LUMCON:103:1,2007-08-03T09:00:00Z,30.1889,-90.1683,1013.9,11111222 
LUMCON,ioos:station:LUMCON:103:1,2007-08-03T10:00:00Z,30.1889,-90.1683,1014.1,11111222 
LUMCON,ioos:station:LUMCON:103:1,2007-08-03T11:00:00Z,30.1889,-90.1683,1014.5,11111222 
LUMCON,ioos:station:LUMCON:103:1,2007-08-03T12:00:00Z,30.1889,-90.1683,1014.9,11111222 
LUMCON,ioos:station:LUMCON:103:1,2007-08-03T13:00:00Z,30.1889,-90.1683,1015.6,11111222 
LUMCON,ioos:station:LUMCON:103:1,2007-08-03T14:00:00Z,30.1889,-90.1683,1015.8,11111222 
LUMCON,ioos:station:LUMCON:103:1,2007-08-03T15:00:00Z,30.1889,-90.1683,1016.0,11111222 
LUMCON,ioos:station:LUMCON:103:1,2007-08-03T16:00:00Z,30.1889,-90.1683,1016.2,11111222 
LUMCON,ioos:station:LUMCON:103:1,2007-08-03T17:00:00Z,30.1889,-90.1683,1015.9,11111222 
LUMCON,ioos:station:LUMCON:103:1,2007-08-03T18:00:00Z,30.1889,-90.1683,1015.8,11111222 
LUMCON,ioos:station:LUMCON:103:1,2007-08-03T19:00:00Z,30.1889,-90.1683,1015.3,11111222 
LUMCON,ioos:station:LUMCON:103:1,2007-08-03T20:00:00Z,30.1889,-90.1683,1015.2,11111222 
LUMCON,ioos:station:LUMCON:103:1,2007-08-03T23:00:00Z,30.1889,-90.1683,1014.6,11111222 
LUMCON,ioos:station:LUMCON:103:1,2007-08-04T00:00:00Z,30.1889,-90.1683,1014.5,11111222 
LUMCON,ioos:station:LUMCON:103:1,2007-08-04T01:00:00Z,30.1889,-90.1683,1014.9,11111222 
LUMCON,ioos:station:LUMCON:103:1,2007-08-04T02:00:00Z,30.1889,-90.1683,1015.3,11111222 
LUMCON,ioos:station:LUMCON:103:1,2007-08-04T03:00:00Z,30.1889,-90.1683,1016.1,11111222 
LUMCON,ioos:station:LUMCON:103:1,2007-08-04T04:00:00Z,30.1889,-90.1683,1016.2,11111222 
LUMCON,ioos:station:LUMCON:103:1,2007-08-04T05:00:00Z,30.1889,-90.1683,1016.2,11111222 
LUMCON,ioos:station:LUMCON:103:1,2007-08-04T06:00:00Z,30.1889,-90.1683,1016.3,11111222 
LUMCON,ioos:station:LUMCON:103:1,2007-08-04T07:00:00Z,30.1889,-90.1683,1016.3,11111222 
LUMCON,ioos:station:LUMCON:103:1,2007-08-04T18:00:00Z,30.1889,-90.1683,1017.8,11111222 
LUMCON,ioos:station:LUMCON:103:1,2007-08-04T19:00:00Z,30.1889,-90.1683,1017.1,11111222 
LUMCON,ioos:station:LUMCON:103:1,2007-08-04T20:00:00Z,30.1889,-90.1683,1016.9,11111222 
LUMCON,ioos:station:LUMCON:103:1,2007-08-06T12:00:00Z,30.1889,-90.1683,1016.9,11111222 
LUMCON,ioos:station:LUMCON:103:1,2007-08-06T13:00:00Z,30.1889,-90.1683,1017.5,11111222 
LUMCON,ioos:station:LUMCON:103:1,2007-08-06T14:00:00Z,30.1889,-90.1683,1017.6,11111222 
LUMCON,ioos:station:LUMCON:103:1,2007-08-06T15:00:00Z,30.1889,-90.1683,1017.6,11111222 
LUMCON,ioos:station:LUMCON:103:1,2007-08-06T16:00:00Z,30.1889,-90.1683,1017.7,11111222 
LUMCON,ioos:station:LUMCON:103:1,2007-08-06T17:00:00Z,30.1889,-90.1683,1017.3,11111222 
LUMCON,ioos:station:LUMCON:103:1,2007-08-06T18:00:00Z,30.1889,-90.1683,1016.7,11111222 
LUMCON,ioos:station:LUMCON:103:1,2007-08-06T19:00:00Z,30.1889,-90.1683,1016.1,11111222 
LUMCON,ioos:station:LUMCON:103:1,2007-08-06T20:00:00Z,30.1889,-90.1683,1015.5,11111222 
LUMCON,ioos:station:LUMCON:103:1,2007-08-06T21:00:00Z,30.1889,-90.1683,1015.0,11111222 
LUMCON,ioos:station:LUMCON:103:1,2007-08-06T22:00:00Z,30.1889,-90.1683,1014.6,11111222 
LUMCON,ioos:station:LUMCON:103:1,2007-08-06T23:00:00Z,30.1889,-90.1683,1014.2,11111222 
LUMCON,ioos:station:LUMCON:103:1,2007-08-07T00:00:00Z,30.1889,-90.1683,1014.3,11111222 
LUMCON,ioos:station:LUMCON:103:1,2007-08-07T01:00:00Z,30.1889,-90.1683,1014.4,11111222 
LUMCON,ioos:station:LUMCON:103:1,2007-08-07T02:00:00Z,30.1889,-90.1683,1014.6,11111222 
LUMCON,ioos:station:LUMCON:103:1,2007-08-07T03:00:00Z,30.1889,-90.1683,1014.9,11111222 
LUMCON,ioos:station:LUMCON:103:1,2007-08-07T04:00:00Z,30.1889,-90.1683,1015.2,11111222 
LUMCON,ioos:station:LUMCON:103:1,2007-08-07T05:00:00Z,30.1889,-90.1683,1015.1,11111222 
LUMCON,ioos:station:LUMCON:103:1,2007-08-07T06:00:00Z,30.1889,-90.1683,1014.6,11111222 
LUMCON,ioos:station:LUMCON:103:1,2007-08-07T07:00:00Z,30.1889,-90.1683,1014.4,11111222 
LUMCON,ioos:station:LUMCON:103:1,2007-08-07T08:00:00Z,30.1889,-90.1683,1014.3,11111222 
LUMCON,ioos:station:LUMCON:103:1,2007-08-07T09:00:00Z,30.1889,-90.1683,1014.5,11111222 
LUMCON,ioos:station:LUMCON:103:1,2007-08-07T10:00:00Z,30.1889,-90.1683,1014.9,11111222 
LUMCON,ioos:station:LUMCON:103:1,2007-08-07T11:00:00Z,30.1889,-90.1683,1015.4,11111222 
LUMCON,ioos:station:LUMCON:103:1,2007-08-07T12:00:00Z,30.1889,-90.1683,1015.7,11111222 
LUMCON,ioos:station:LUMCON:103:1,2007-08-07T13:00:00Z,30.1889,-90.1683,1015.9,11111222 
LUMCON,ioos:station:LUMCON:103:1,2007-08-07T14:00:00Z,30.1889,-90.1683,1016.2,11111222 
LUMCON,ioos:station:LUMCON:103:1,2007-08-07T15:00:00Z,30.1889,-90.1683,1016.5,11111222 
LUMCON,ioos:station:LUMCON:103:1,2007-08-07T16:00:00Z,30.1889,-90.1683,1016.8,11111222 
LUMCON,ioos:station:LUMCON:103:1,2007-08-07T17:00:00Z,30.1889,-90.1683,1016.6,11111222 
LUMCON,ioos:station:LUMCON:103:1,2007-08-07T18:00:00Z,30.1889,-90.1683,1016.3,11111222 
LUMCON,ioos:station:LUMCON:103:1,2007-08-07T19:00:00Z,30.1889,-90.1683,1015.7,11111222 
LUMCON,ioos:station:LUMCON:103:1,2007-08-07T20:00:00Z,30.1889,-90.1683,1014.8,11111222 
LUMCON,ioos:station:LUMCON:103:1,2007-08-07T21:00:00Z,30.1889,-90.1683,1014.2,11111222 
LUMCON,ioos:station:LUMCON:103:1,2007-08-07T22:00:00Z,30.1889,-90.1683,1013.8,11111222 
LUMCON,ioos:station:LUMCON:103:1,2007-08-07T23:00:00Z,30.1889,-90.1683,1013.4,11111222 
LUMCON,ioos:station:LUMCON:103:1,2007-08-08T00:00:00Z,30.1889,-90.1683,1013.6,11111222 
LUMCON,ioos:station:LUMCON:103:1,2007-08-08T01:00:00Z,30.1889,-90.1683,1013.6,11111222 
LUMCON,ioos:station:LUMCON:103:1,2007-08-08T02:00:00Z,30.1889,-90.1683,1013.8,11111222 
LUMCON,ioos:station:LUMCON:103:1,2007-08-08T03:00:00Z,30.1889,-90.1683,1014.3,11111222 
LUMCON,ioos:station:LUMCON:103:1,2007-08-08T04:00:00Z,30.1889,-90.1683,1014.3,11111222 
LUMCON,ioos:station:LUMCON:103:1,2007-08-08T05:00:00Z,30.1889,-90.1683,1014.3,11111222 
LUMCON,ioos:station:LUMCON:103:1,2007-08-08T06:00:00Z,30.1889,-90.1683,1013.8,11111222 
LUMCON,ioos:station:LUMCON:103:1,2007-08-08T07:00:00Z,30.1889,-90.1683,1013.5,11111222 
LUMCON,ioos:station:LUMCON:103:1,2007-08-08T08:00:00Z,30.1889,-90.1683,1013.2,11111222 
LUMCON,ioos:station:LUMCON:103:1,2007-08-08T09:00:00Z,30.1889,-90.1683,1013.7,11111222 
LUMCON,ioos:station:LUMCON:103:1,2007-08-08T10:00:00Z,30.1889,-90.1683,1014.0,11111222 
LUMCON,ioos:station:LUMCON:103:1,2007-08-08T11:00:00Z,30.1889,-90.1683,1014.4,11111222 
LUMCON,ioos:station:LUMCON:103:1,2007-08-08T12:00:00Z,30.1889,-90.1683,1014.6,11111222 
LUMCON,ioos:station:LUMCON:103:1,2007-08-08T13:00:00Z,30.1889,-90.1683,1015.0,11111222 
LUMCON,ioos:station:LUMCON:103:1,2007-08-08T14:00:00Z,30.1889,-90.1683,1015.2,11111222 
LUMCON,ioos:station:LUMCON:103:1,2007-08-08T15:00:00Z,30.1889,-90.1683,1015.4,11111222 
LUMCON,ioos:station:LUMCON:103:1,2007-08-08T16:00:00Z,30.1889,-90.1683,1015.7,11111222 
LUMCON,ioos:station:LUMCON:103:1,2007-08-08T17:00:00Z,30.1889,-90.1683,1015.6,11111222 
LUMCON,ioos:station:LUMCON:103:1,2007-08-08T18:00:00Z,30.1889,-90.1683,1015.1,11111222 
LUMCON,ioos:station:LUMCON:103:1,2007-08-08T19:00:00Z,30.1889,-90.1683,1014.7,11111222 
LUMCON,ioos:station:LUMCON:103:1,2007-08-08T20:00:00Z,30.1889,-90.1683,1014.1,11111222 
LUMCON,ioos:station:LUMCON:103:1,2007-08-08T21:00:00Z,30.1889,-90.1683,1013.6,11111222 
LUMCON,ioos:station:LUMCON:103:1,2007-08-08T22:00:00Z,30.1889,-90.1683,1013.2,11111222 
LUMCON,ioos:station:LUMCON:103:1,2007-08-08T23:00:00Z,30.1889,-90.1683,1013.0,11111222 
LUMCON,ioos:station:LUMCON:103:1,2007-08-09T00:00:00Z,30.1889,-90.1683,1013.3,11111222 
LUMCON,ioos:station:LUMCON:103:1,2007-08-09T01:00:00Z,30.1889,-90.1683,1013.4,11111222 
LUMCON,ioos:station:LUMCON:103:1,2007-08-09T02:00:00Z,30.1889,-90.1683,1013.6,11111222 
LUMCON,ioos:station:LUMCON:103:1,2007-08-09T03:00:00Z,30.1889,-90.1683,1014.0,11111222 
LUMCON,ioos:station:LUMCON:103:1,2007-08-09T04:00:00Z,30.1889,-90.1683,1014.0,11111222 
LUMCON,ioos:station:LUMCON:103:1,2007-08-09T05:00:00Z,30.1889,-90.1683,1014.1,11111222 
LUMCON,ioos:station:LUMCON:103:1,2007-08-09T06:00:00Z,30.1889,-90.1683,1013.8,11111222 
LUMCON,ioos:station:LUMCON:103:1,2007-08-09T07:00:00Z,30.1889,-90.1683,1013.4,11111222 
LUMCON,ioos:station:LUMCON:103:1,2007-08-09T08:00:00Z,30.1889,-90.1683,1013.1,11111222 
LUMCON,ioos:station:LUMCON:103:1,2007-08-09T09:00:00Z,30.1889,-90.1683,1013.1,11111222 
LUMCON,ioos:station:LUMCON:103:1,2007-08-09T10:00:00Z,30.1889,-90.1683,1013.5,11111222 
LUMCON,ioos:station:LUMCON:103:1,2007-08-09T11:00:00Z,30.1889,-90.1683,1014.4,11111222 
LUMCON,ioos:station:LUMCON:103:1,2007-08-09T12:00:00Z,30.1889,-90.1683,1015.0,11111222 
LUMCON,ioos:station:LUMCON:103:1,2007-08-09T13:00:00Z,30.1889,-90.1683,1015.5,11111222 
LUMCON,ioos:station:LUMCON:103:1,2007-08-09T14:00:00Z,30.1889,-90.1683,1015.7,11111222 
LUMCON,ioos:station:LUMCON:103:1,2007-08-09T15:00:00Z,30.1889,-90.1683,1015.8,11111222 
LUMCON,ioos:station:LUMCON:103:1,2007-08-09T16:00:00Z,30.1889,-90.1683,1016.0,11111222 
LUMCON,ioos:station:LUMCON:103:1,2007-08-09T17:00:00Z,30.1889,-90.1683,1015.7,11111222 
LUMCON,ioos:station:LUMCON:103:1,2007-08-09T18:00:00Z,30.1889,-90.1683,1015.2,11111222 
LUMCON,ioos:station:LUMCON:103:1,2007-08-09T19:00:00Z,30.1889,-90.1683,1014.7,11111222 
LUMCON,ioos:station:LUMCON:103:1,2007-08-09T20:00:00Z,30.1889,-90.1683,1013.8,11111222 
LUMCON,ioos:station:LUMCON:103:1,2007-08-09T21:00:00Z,30.1889,-90.1683,1013.2,11111222 
LUMCON,ioos:station:LUMCON:103:1,2007-08-09T22:00:00Z,30.1889,-90.1683,1013.3,11111222 
LUMCON,ioos:station:LUMCON:103:1,2007-08-09T23:00:00Z,30.1889,-90.1683,1013.2,11111222 
LUMCON,ioos:station:LUMCON:103:1,2007-08-10T00:00:00Z,30.1889,-90.1683,1013.2,11111222 
LUMCON,ioos:station:LUMCON:103:1,2007-08-10T01:00:00Z,30.1889,-90.1683,1013.1,11111222 
LUMCON,ioos:station:LUMCON:103:1,2007-08-10T02:00:00Z,30.1889,-90.1683,1014.0,11111222 
LUMCON,ioos:station:LUMCON:103:1,2007-08-10T03:00:00Z,30.1889,-90.1683,1014.2,11111222 
LUMCON,ioos:station:LUMCON:103:1,2007-08-10T04:00:00Z,30.1889,-90.1683,1014.4,11111222 
LUMCON,ioos:station:LUMCON:103:1,2007-08-10T05:00:00Z,30.1889,-90.1683,1014.2,11111222 
LUMCON,ioos:station:LUMCON:103:1,2007-08-10T06:00:00Z,30.1889,-90.1683,1013.8,11111222 
LUMCON,ioos:station:LUMCON:103:1,2007-08-10T07:00:00Z,30.1889,-90.1683,1013.5,11111222 
LUMCON,ioos:station:LUMCON:103:1,2007-08-10T08:00:00Z,30.1889,-90.1683,1013.3,11111222 
LUMCON,ioos:station:LUMCON:103:1,2007-08-10T09:00:00Z,30.1889,-90.1683,1013.1,11111222 
LUMCON,ioos:station:LUMCON:103:1,2007-08-10T10:00:00Z,30.1889,-90.1683,1013.1,11111222 
LUMCON,ioos:station:LUMCON:103:1,2007-08-10T11:00:00Z,30.1889,-90.1683,1013.6,11111222 
LUMCON,ioos:station:LUMCON:103:1,2007-08-10T12:00:00Z,30.1889,-90.1683,1014.2,11111222 
LUMCON,ioos:station:LUMCON:103:1,2007-08-10T13:00:00Z,30.1889,-90.1683,1014.0,11111222 
LUMCON,ioos:station:LUMCON:103:1,2007-08-10T14:00:00Z,30.1889,-90.1683,1014.7,11111222 
LUMCON,ioos:station:LUMCON:103:1,2007-08-10T15:00:00Z,30.1889,-90.1683,1015.1,11111222 
LUMCON,ioos:station:LUMCON:103:1,2007-08-10T16:00:00Z,30.1889,-90.1683,1015.1,11111222 
LUMCON,ioos:station:LUMCON:103:1,2007-08-10T17:00:00Z,30.1889,-90.1683,1014.9,11111222 
LUMCON,ioos:station:LUMCON:103:1,2007-08-10T18:00:00Z,30.1889,-90.1683,1014.4,11111222 
LUMCON,ioos:station:LUMCON:103:1,2007-08-10T20:00:00Z,30.1889,-90.1683,1013.4,11111222 
LUMCON,ioos:station:LUMCON:103:1,2007-08-10T21:00:00Z,30.1889,-90.1683,1012.9,11111222 
LUMCON,ioos:station:LUMCON:103:1,2007-08-10T22:00:00Z,30.1889,-90.1683,1012.4,11111222 
LUMCON,ioos:station:LUMCON:103:1,2007-08-10T23:00:00Z,30.1889,-90.1683,1011.7,11111222 
LUMCON,ioos:station:LUMCON:103:1,2007-08-11T00:00:00Z,30.1889,-90.1683,1011.9,11111222 
LUMCON,ioos:station:LUMCON:103:1,2007-08-11T01:00:00Z,30.1889,-90.1683,1012.5,11111222 
LUMCON,ioos:station:LUMCON:103:1,2007-08-11T02:00:00Z,30.1889,-90.1683,1012.5,11111222 
LUMCON,ioos:station:LUMCON:103:1,2007-08-11T03:00:00Z,30.1889,-90.1683,1012.9,11111222 
LUMCON,ioos:station:LUMCON:103:1,2007-08-11T05:00:00Z,30.1889,-90.1683,1013.0,11111222 
LUMCON,ioos:station:LUMCON:103:1,2007-08-11T06:00:00Z,30.1889,-90.1683,1012.9,11111222 
LUMCON,ioos:station:LUMCON:103:1,2007-08-11T07:00:00Z,30.1889,-90.1683,1012.9,11111222 
LUMCON,ioos:station:LUMCON:103:1,2007-08-11T09:00:00Z,30.1889,-90.1683,1012.2,11111222 
LUMCON,ioos:station:LUMCON:103:1,2007-08-11T10:00:00Z,30.1889,-90.1683,1012.2,11111222 
LUMCON,ioos:station:LUMCON:103:1,2007-08-11T11:00:00Z,30.1889,-90.1683,1012.3,11111222 
LUMCON,ioos:station:LUMCON:103:1,2007-08-11T12:00:00Z,30.1889,-90.1683,1012.9,11111222 
LUMCON,ioos:station:LUMCON:103:1,2007-08-11T14:00:00Z,30.1889,-90.1683,1013.5,11111222 
LUMCON,ioos:station:LUMCON:103:1,2007-08-11T15:00:00Z,30.1889,-90.1683,1013.3,11111222 
LUMCON,ioos:station:LUMCON:103:1,2007-08-11T16:00:00Z,30.1889,-90.1683,1013.6,11111222 
LUMCON,ioos:station:LUMCON:103:1,2007-08-11T18:00:00Z,30.1889,-90.1683,1013.4,11111222 
LUMCON,ioos:station:LUMCON:103:1,2007-08-11T19:00:00Z,30.1889,-90.1683,1012.9,11111222 
LUMCON,ioos:station:LUMCON:103:1,2007-08-11T20:00:00Z,30.1889,-90.1683,1012.5,11111222 
LUMCON,ioos:station:LUMCON:103:1,2007-08-11T21:00:00Z,30.1889,-90.1683,1011.9,11111222 
LUMCON,ioos:station:LUMCON:103:1,2007-08-11T22:00:00Z,30.1889,-90.1683,1011.4,11111222 
LUMCON,ioos:station:LUMCON:103:1,2007-08-11T23:00:00Z,30.1889,-90.1683,1011.2,11111222 
LUMCON,ioos:station:LUMCON:103:1,2007-08-12T00:00:00Z,30.1889,-90.1683,1011.6,11111222 
LUMCON,ioos:station:LUMCON:103:1,2007-08-12T01:00:00Z,30.1889,-90.1683,1012.0,11111222 
LUMCON,ioos:station:LUMCON:103:1,2007-08-12T02:00:00Z,30.1889,-90.1683,1012.6,11111222 
LUMCON,ioos:station:LUMCON:103:1,2007-08-12T03:00:00Z,30.1889,-90.1683,1013.2,11111222 
LUMCON,ioos:station:LUMCON:103:1,2007-08-12T04:00:00Z,30.1889,-90.1683,1013.7,11111222 
LUMCON,ioos:station:LUMCON:103:1,2007-08-12T05:00:00Z,30.1889,-90.1683,1013.7,11111222 
LUMCON,ioos:station:LUMCON:103:1,2007-08-12T06:00:00Z,30.1889,-90.1683,1013.5,11111222 
LUMCON,ioos:station:LUMCON:103:1,2007-08-12T07:00:00Z,30.1889,-90.1683,1013.0,11111222 
LUMCON,ioos:station:LUMCON:103:1,2007-08-12T08:00:00Z,30.1889,-90.1683,1012.7,11111222 
LUMCON,ioos:station:LUMCON:103:1,2007-08-12T09:00:00Z,30.1889,-90.1683,1012.6,11111222 
LUMCON,ioos:station:LUMCON:103:1,2007-08-12T10:00:00Z,30.1889,-90.1683,1012.5,11111222 
LUMCON,ioos:station:LUMCON:103:1,2007-08-12T11:00:00Z,30.1889,-90.1683,1013.0,11111222 
LUMCON,ioos:station:LUMCON:103:1,2007-08-12T12:00:00Z,30.1889,-90.1683,1013.5,11111222 
LUMCON,ioos:station:LUMCON:103:1,2007-08-12T13:00:00Z,30.1889,-90.1683,1014.1,11111222 
LUMCON,ioos:station:LUMCON:103:1,2007-08-12T14:00:00Z,30.1889,-90.1683,1014.6,11111222 
LUMCON,ioos:station:LUMCON:103:1,2007-08-12T15:00:00Z,30.1889,-90.1683,1014.8,11111222 
LUMCON,ioos:station:LUMCON:103:1,2007-08-12T16:00:00Z,30.1889,-90.1683,1014.9,11111222 
LUMCON,ioos:station:LUMCON:103:1,2007-08-12T17:00:00Z,30.1889,-90.1683,1014.8,11111222 
LUMCON,ioos:station:LUMCON:103:1,2007-08-12T18:00:00Z,30.1889,-90.1683,1014.3,11111222 
LUMCON,ioos:station:LUMCON:103:1,2007-08-12T19:00:00Z,30.1889,-90.1683,1013.9,11111222 
LUMCON,ioos:station:LUMCON:103:1,2007-08-12T20:00:00Z,30.1889,-90.1683,1013.1,11111222 
LUMCON,ioos:station:LUMCON:103:1,2007-08-12T21:00:00Z,30.1889,-90.1683,1013.0,11111222 
LUMCON,ioos:station:LUMCON:103:1,2007-08-12T22:00:00Z,30.1889,-90.1683,1013.0,11111222 
LUMCON,ioos:station:LUMCON:103:1,2007-08-12T23:00:00Z,30.1889,-90.1683,1012.4,11111222 
LUMCON,ioos:station:LUMCON:103:1,2007-08-13T00:00:00Z,30.1889,-90.1683,1012.7,11111222 
LUMCON,ioos:station:LUMCON:103:1,2007-08-13T01:00:00Z,30.1889,-90.1683,1012.7,11111222 
LUMCON,ioos:station:LUMCON:103:1,2007-08-13T02:00:00Z,30.1889,-90.1683,1013.1,11111222 
LUMCON,ioos:station:LUMCON:103:1,2007-08-13T03:00:00Z,30.1889,-90.1683,1014.1,11111222 
LUMCON,ioos:station:LUMCON:103:1,2007-08-13T04:00:00Z,30.1889,-90.1683,1013.8,11111222 
LUMCON,ioos:station:LUMCON:103:1,2007-08-13T05:00:00Z,30.1889,-90.1683,1013.8,11111222 
LUMCON,ioos:station:LUMCON:103:1,2007-08-13T06:00:00Z,30.1889,-90.1683,1013.8,11111222 
LUMCON,ioos:station:LUMCON:103:1,2007-08-13T07:00:00Z,30.1889,-90.1683,1013.5,11111222 
LUMCON,ioos:station:LUMCON:103:1,2007-08-13T08:00:00Z,30.1889,-90.1683,1013.1,11111222 
LUMCON,ioos:station:LUMCON:103:1,2007-08-13T09:00:00Z,30.1889,-90.1683,1013.0,11111222 
LUMCON,ioos:station:LUMCON:103:1,2007-08-13T10:00:00Z,30.1889,-90.1683,1012.9,11111222 
LUMCON,ioos:station:LUMCON:103:1,2007-08-13T11:00:00Z,30.1889,-90.1683,1013.0,11111222 
LUMCON,ioos:station:LUMCON:103:1,2007-08-14T07:00:00Z,30.1889,-90.1683,1012.5,11111222 
LUMCON,ioos:station:LUMCON:103:1,2007-08-14T08:00:00Z,30.1889,-90.1683,1012.2,11111222 
LUMCON,ioos:station:LUMCON:103:1,2007-08-14T09:00:00Z,30.1889,-90.1683,1012.1,11111222 
LUMCON,ioos:station:LUMCON:103:1,2007-08-14T10:00:00Z,30.1889,-90.1683,1012.3,11111222 
LUMCON,ioos:station:LUMCON:103:1,2007-08-14T11:00:00Z,30.1889,-90.1683,1012.3,11111222 
LUMCON,ioos:station:LUMCON:103:1,2007-08-14T12:00:00Z,30.1889,-90.1683,1012.8,11111222 
LUMCON,ioos:station:LUMCON:103:1,2007-08-14T13:00:00Z,30.1889,-90.1683,1013.2,11111222 
LUMCON,ioos:station:LUMCON:103:1,2007-08-14T14:00:00Z,30.1889,-90.1683,1013.4,11111222 
LUMCON,ioos:station:LUMCON:103:1,2007-08-14T15:00:00Z,30.1889,-90.1683,1013.6,11111222 
LUMCON,ioos:station:LUMCON:103:1,2007-08-14T16:00:00Z,30.1889,-90.1683,1013.6,11111222 
LUMCON,ioos:station:LUMCON:103:1,2007-08-14T17:00:00Z,30.1889,-90.1683,1013.4,11111222 
LUMCON,ioos:station:LUMCON:103:1,2007-08-14T18:00:00Z,30.1889,-90.1683,1012.7,11111222 
LUMCON,ioos:station:LUMCON:103:1,2007-08-14T20:00:00Z,30.1889,-90.1683,1011.5,11111222 
LUMCON,ioos:station:LUMCON:103:1,2007-08-14T21:00:00Z,30.1889,-90.1683,1011.0,11111222 
LUMCON,ioos:station:LUMCON:103:1,2007-08-14T22:00:00Z,30.1889,-90.1683,1010.8,11111222 
LUMCON,ioos:station:LUMCON:103:1,2007-08-14T23:00:00Z,30.1889,-90.1683,1010.3,11111222 
LUMCON,ioos:station:LUMCON:103:1,2007-08-15T00:00:00Z,30.1889,-90.1683,1010.9,11111222 
LUMCON,ioos:station:LUMCON:103:1,2007-08-15T01:00:00Z,30.1889,-90.1683,1011.2,11111222 
LUMCON,ioos:station:LUMCON:103:1,2007-08-15T02:00:00Z,30.1889,-90.1683,1012.0,11111222 
LUMCON,ioos:station:LUMCON:103:1,2007-08-15T03:00:00Z,30.1889,-90.1683,1012.1,11111222 
LUMCON,ioos:station:LUMCON:103:1,2007-08-15T05:00:00Z,30.1889,-90.1683,1011.8,11111222 
LUMCON,ioos:station:LUMCON:103:1,2007-08-15T06:00:00Z,30.1889,-90.1683,1011.6,11111222 
LUMCON,ioos:station:LUMCON:103:1,2007-08-15T07:00:00Z,30.1889,-90.1683,1011.3,11111222 
LUMCON,ioos:station:LUMCON:103:1,2007-08-15T08:00:00Z,30.1889,-90.1683,1010.9,11111222 
LUMCON,ioos:station:LUMCON:103:1,2007-08-15T09:00:00Z,30.1889,-90.1683,1011.1,11111222 
LUMCON,ioos:station:LUMCON:103:1,2007-08-15T10:00:00Z,30.1889,-90.1683,1011.2,11111222 
LUMCON,ioos:station:LUMCON:103:1,2007-08-15T11:00:00Z,30.1889,-90.1683,1011.4,11111222 
LUMCON,ioos:station:LUMCON:103:1,2007-08-15T12:00:00Z,30.1889,-90.1683,1012.1,11111222 
LUMCON,ioos:station:LUMCON:103:1,2007-08-15T13:00:00Z,30.1889,-90.1683,1012.7,11111222 
LUMCON,ioos:station:LUMCON:103:1,2007-08-15T15:00:00Z,30.1889,-90.1683,1013.2,11111222 
LUMCON,ioos:station:LUMCON:103:1,2007-08-15T16:00:00Z,30.1889,-90.1683,1013.9,11111222 
LUMCON,ioos:station:LUMCON:103:1,2007-08-15T17:00:00Z,30.1889,-90.1683,1014.6,11111222 
LUMCON,ioos:station:LUMCON:103:1,2007-08-15T18:00:00Z,30.1889,-90.1683,1013.4,11111222 
LUMCON,ioos:station:LUMCON:103:1,2007-08-15T19:00:00Z,30.1889,-90.1683,1013.0,11111222 
LUMCON,ioos:station:LUMCON:103:1,2007-08-15T21:00:00Z,30.1889,-90.1683,1012.6,11111222 
LUMCON,ioos:station:LUMCON:103:1,2007-08-15T22:00:00Z,30.1889,-90.1683,1012.3,11111222 
LUMCON,ioos:station:LUMCON:103:1,2007-08-15T23:00:00Z,30.1889,-90.1683,1012.3,11111222 
LUMCON,ioos:station:LUMCON:103:1,2007-08-16T02:00:00Z,30.1889,-90.1683,1012.6,11111222 
LUMCON,ioos:station:LUMCON:103:1,2007-08-16T03:00:00Z,30.1889,-90.1683,1012.5,11111222 
LUMCON,ioos:station:LUMCON:103:1,2007-08-16T04:00:00Z,30.1889,-90.1683,1013.0,11111222 
LUMCON,ioos:station:LUMCON:103:1,2007-08-16T05:00:00Z,30.1889,-90.1683,1012.3,11111222 
LUMCON,ioos:station:LUMCON:103:1,2007-08-16T06:00:00Z,30.1889,-90.1683,1013.1,11111222 
LUMCON,ioos:station:LUMCON:103:1,2007-08-16T07:00:00Z,30.1889,-90.1683,1012.6,11111222 
LUMCON,ioos:station:LUMCON:103:1,2007-08-16T08:00:00Z,30.1889,-90.1683,1013.1,11111222 